This demonstration page uses our WeatherBlox Daily Observations layout. Learn more.

Left ArrowRight Arrow

47.50024, -111.30081

Hourly Observations for April 6, 2020

Temp ( °F °C ) Dew Point ( °F °C ) Humidity (%) Winds ( mph kmh ) Pressure ( in mb ) Visibility ( mi km ) Precip ( " mm )
12:53 am 00:53 Mostly Cloudy 26 -3.3 23 -5 88 88 W 6 9 29.70 1006 10 16 0.00 0.00
1:53 am 01:53 Clear 25 -3.9 22 -5.6 88 88 SW 8 13 29.68 1005 10 16 0.00 0.00
2:53 am 02:53 Clear 27 -2.8 22 -5.6 81 81 SW 8 13 29.65 1004 10 16 0.00 0.00
3:53 am 03:53 Clear 29 -1.7 23 -5 78 78 S 12 19 29.64 1004 10 16 0.00 0.00
4:53 am 04:53 Clear 26 -3.3 22 -5.6 84 84 NW 7 11 29.65 1004 10 16 0.00 0.00
5:53 am 05:53 Clear 25 -3.9 22 -5.6 88 88 WSW 6 9 29.67 1005 10 16 0.00 0.00
6:53 am 06:53 Sunny 30 -1.1 25 -3.9 82 82 SSW 6 9 29.65 1004 10 16 0.00 0.00
7:53 am 07:53 Sunny 35 1.7 28 -2.2 76 76 SSW 10 17 29.66 1004 10 16 0.00 0.00
8:53 am 08:53 Sunny 42 5.6 30 -1.1 62 62 SSW 12 19 29.66 1005 10 16 0.00 0.00
9:53 am 09:53 Sunny 47 8.3 30 -1.1 52 52 SW 13 20 29.67 1005 10 16 0.00 0.00
10:53 am 10:53 Partly Cloudy 50 10 30 -1.1 46 46 WNW 9 15 29.68 1005 10 16 0.00 0.00
11:53 am 11:53 Mostly Sunny 56 13.3 29 -1.7 36 36 W 13 20 29.70 1006 10 16 0.00 0.00
12:53 pm 12:53 Sunny 55 12.8 23 -5 29 29 W 16 26 29.70 1006 10 16 0.00 0.00
1:53 pm 13:53 Mostly Sunny 58 14.4 22 -5.6 25 25 W 23 37 29.68 1005 10 16 0.00 0.00
2:53 pm 14:53 Cloudy 56 13.3 22 -5.6 27 27 WSW 20 31 29.70 1006 10 16 0.00 0.00
3:53 pm 15:53 Mostly Cloudy 59 15 21 -6.1 23 23 W 24 39 29.69 1005 10 16 0.00 0.00
4:53 pm 16:53 Mostly Cloudy 59 15 19 -7.2 21 21 W 22 35 29.70 1006 10 16 0.00 0.00
5:53 pm 17:53 Mostly Cloudy 57 13.9 20 -6.7 24 24 W 25 41 29.72 1006 10 16 0.00 0.00
6:53 pm 18:53 Mostly Sunny 54 12.2 20 -6.7 26 26 W 17 28 29.73 1007 10 16 0.00 0.00
7:53 pm 19:53 Sunny 47 8.3 22 -5.6 37 37 W 9 15 29.74 1007 10 16 0.00 0.00
8:53 pm 20:53 Clear 41 5 22 -5.6 47 47 W 13 20 29.76 1008 10 16 0.00 0.00
9:53 pm 21:53 Clear 38 3.3 22 -5.6 52 52 WSW 13 20 29.75 1008 10 16 0.00 0.00
10:53 pm 22:53 Clear 39 3.9 22 -5.6 50 50 WSW 14 22 29.75 1007 10 16 0.00 0.00
11:53 pm 23:53 Clear 38 3.3 23 -5 55 55 WSW 14 22 29.74 1007 10 16 0.00 0.00

Powered by AerisWeather